Year,Month,Day,Hour,Minute,Value (Times are PST for temperature in C)
2015,08,24,00,00,14.40
2015,08,24,00,01,14.40
2015,08,24,00,02,14.40
2015,08,24,00,03,14.40
2015,08,24,00,04,14.30
2015,08,24,00,05,14.30
2015,08,24,00,06,14.30
2015,08,24,00,07,14.30
2015,08,24,00,08,14.30
2015,08,24,00,09,14.20
2015,08,24,00,10,14.20
2015,08,24,00,11,14.20
2015,08,24,00,12,14.20
2015,08,24,00,13,14.20
2015,08,24,00,14,14.10
2015,08,24,00,15,14.00
2015,08,24,00,16,14.00
2015,08,24,00,17,13.90
2015,08,24,00,18,13.90
2015,08,24,00,19,13.90
2015,08,24,00,20,13.80
2015,08,24,00,21,13.80
2015,08,24,00,22,13.80
2015,08,24,00,23,13.70
2015,08,24,00,24,13.70
2015,08,24,00,25,13.70
2015,08,24,00,26,13.70
2015,08,24,00,27,13.70
2015,08,24,00,28,13.70
2015,08,24,00,29,13.70
2015,08,24,00,30,13.70
2015,08,24,00,31,13.60
2015,08,24,00,32,13.50
2015,08,24,00,33,13.50
2015,08,24,00,34,13.50
2015,08,24,00,35,13.50
2015,08,24,00,36,13.50
2015,08,24,00,37,13.50
2015,08,24,00,38,13.50
2015,08,24,00,39,13.50
2015,08,24,00,40,13.50
2015,08,24,00,41,13.50
2015,08,24,00,42,13.50
2015,08,24,00,43,13.40
2015,08,24,00,44,13.40
2015,08,24,00,45,13.40
2015,08,24,00,46,13.40
2015,08,24,00,47,13.40
2015,08,24,00,48,13.40
2015,08,24,00,49,13.40
2015,08,24,00,50,13.40
2015,08,24,00,51,13.40
2015,08,24,00,52,13.40
2015,08,24,00,53,13.40
2015,08,24,00,54,13.40
2015,08,24,00,55,13.40
2015,08,24,00,56,13.40
2015,08,24,00,57,13.40
2015,08,24,00,58,13.40
2015,08,24,00,59,13.40
2015,08,24,01,00,13.40
2015,08,24,01,01,13.40
2015,08,24,01,02,13.40
2015,08,24,01,03,13.30
2015,08,24,01,04,13.30
2015,08,24,01,05,13.30
2015,08,24,01,06,13.30
2015,08,24,01,07,13.30
2015,08,24,01,08,13.30
2015,08,24,01,09,13.30
2015,08,24,01,10,13.30
2015,08,24,01,11,13.30
2015,08,24,01,12,13.30
2015,08,24,01,13,13.20
2015,08,24,01,14,13.20
2015,08,24,01,15,13.10
2015,08,24,01,16,13.10
2015,08,24,01,17,13.00
2015,08,24,01,18,13.00
2015,08,24,01,19,13.00
2015,08,24,01,20,13.00
2015,08,24,01,21,13.00
2015,08,24,01,22,13.00
2015,08,24,01,23,13.10
2015,08,24,01,24,13.10
2015,08,24,01,25,13.10
2015,08,24,01,26,13.10
2015,08,24,01,27,13.10
2015,08,24,01,28,13.20
2015,08,24,01,29,13.20
2015,08,24,01,30,13.20
2015,08,24,01,31,13.20
2015,08,24,01,32,13.30
2015,08,24,01,33,13.30
2015,08,24,01,34,13.30
2015,08,24,01,35,13.40
2015,08,24,01,36,13.50
2015,08,24,01,37,13.50
2015,08,24,01,38,13.60
2015,08,24,01,39,13.60
2015,08,24,01,40,13.60
2015,08,24,01,41,13.70
2015,08,24,01,42,13.70
2015,08,24,01,43,13.70
2015,08,24,01,44,13.70
2015,08,24,01,45,13.70
2015,08,24,01,46,13.70
2015,08,24,01,47,13.70
2015,08,24,01,48,13.70
2015,08,24,01,49,13.70
2015,08,24,01,50,13.70
2015,08,24,01,51,13.60
2015,08,24,01,52,13.60
2015,08,24,01,53,13.60
2015,08,24,01,54,13.50
2015,08,24,01,55,13.50
2015,08,24,01,56,13.50
2015,08,24,01,57,13.50
2015,08,24,01,58,13.50
2015,08,24,01,59,13.50
2015,08,24,02,00,13.50
2015,08,24,02,01,13.40
2015,08,24,02,02,13.40
2015,08,24,02,03,13.40
2015,08,24,02,04,13.30
2015,08,24,02,05,13.30
2015,08,24,02,06,13.30
2015,08,24,02,07,13.20
2015,08,24,02,08,13.20
2015,08,24,02,09,13.10
2015,08,24,02,10,13.10
2015,08,24,02,11,13.00
2015,08,24,02,12,13.00
2015,08,24,02,13,13.00
2015,08,24,02,14,13.00
2015,08,24,02,15,12.90
2015,08,24,02,16,12.90
2015,08,24,02,17,12.90
2015,08,24,02,18,12.90
2015,08,24,02,19,12.90
2015,08,24,02,20,12.90
2015,08,24,02,21,12.90
2015,08,24,02,22,12.90
2015,08,24,02,23,12.90
2015,08,24,02,24,12.80
2015,08,24,02,25,12.80
2015,08,24,02,26,12.80
2015,08,24,02,27,12.80
2015,08,24,02,28,12.80
2015,08,24,02,29,12.80
2015,08,24,02,30,12.80
2015,08,24,02,31,12.80
2015,08,24,02,32,12.80
2015,08,24,02,33,12.70
2015,08,24,02,34,12.70
2015,08,24,02,35,12.60
2015,08,24,02,36,12.60
2015,08,24,02,37,12.60
2015,08,24,02,38,12.60
2015,08,24,02,39,12.50
2015,08,24,02,40,12.50
2015,08,24,02,41,12.50
2015,08,24,02,42,12.40
2015,08,24,02,43,12.40
2015,08,24,02,44,12.30
2015,08,24,02,45,12.30
2015,08,24,02,46,12.30
2015,08,24,02,47,12.30
2015,08,24,02,48,12.30
2015,08,24,02,49,12.30
2015,08,24,02,50,12.30
2015,08,24,02,51,12.30
2015,08,24,02,52,12.30
2015,08,24,02,53,12.30
2015,08,24,02,54,12.30
2015,08,24,02,55,12.40
2015,08,24,02,56,12.40
2015,08,24,02,57,12.40
2015,08,24,02,58,12.40
2015,08,24,02,59,12.50
2015,08,24,03,00,12.50
2015,08,24,03,01,12.50
2015,08,24,03,02,12.50
2015,08,24,03,10,12.40
2015,08,24,03,11,12.40
2015,08,24,03,12,12.40
2015,08,24,03,13,12.40
2015,08,24,03,14,12.40
2015,08,24,03,15,12.40
2015,08,24,03,16,12.40
2015,08,24,03,17,12.40
2015,08,24,03,18,12.30
2015,08,24,03,19,12.30
2015,08,24,03,20,12.30
2015,08,24,03,21,12.30
2015,08,24,03,22,12.30
2015,08,24,03,23,12.30
2015,08,24,03,24,12.30
2015,08,24,03,25,12.30
2015,08,24,03,26,12.20
2015,08,24,03,27,12.20
2015,08,24,03,28,12.20
2015,08,24,03,29,12.10
2015,08,24,03,30,12.10
2015,08,24,03,31,12.00
2015,08,24,03,32,12.00
2015,08,24,03,33,12.00
2015,08,24,03,34,11.90
2015,08,24,03,35,11.90
2015,08,24,03,36,11.90
2015,08,24,03,37,11.90
2015,08,24,03,38,11.80
2015,08,24,03,39,11.80
2015,08,24,03,40,11.80
2015,08,24,03,41,11.80
2015,08,24,03,42,11.80
2015,08,24,03,43,11.80
2015,08,24,03,44,11.80
2015,08,24,03,45,11.80
2015,08,24,03,46,11.80
2015,08,24,03,47,11.80
2015,08,24,03,48,11.80
2015,08,24,03,49,11.80
2015,08,24,03,50,11.80
2015,08,24,03,51,11.80
2015,08,24,03,52,11.80
2015,08,24,03,53,11.80
2015,08,24,03,54,11.80
2015,08,24,03,55,11.80
2015,08,24,03,56,11.80
2015,08,24,03,57,11.90
2015,08,24,03,58,11.90
2015,08,24,03,59,12.00
2015,08,24,04,00,12.00
2015,08,24,04,01,12.00
2015,08,24,04,02,12.00
2015,08,24,04,03,12.00
2015,08,24,04,04,12.00
2015,08,24,04,05,12.00
2015,08,24,04,06,12.00
2015,08,24,04,07,12.00
2015,08,24,04,08,12.00
2015,08,24,04,09,12.00
2015,08,24,04,10,11.90
2015,08,24,04,11,11.90
2015,08,24,04,12,11.90
2015,08,24,04,13,11.90
2015,08,24,04,14,11.90
2015,08,24,04,15,11.90
2015,08,24,04,16,11.90
2015,08,24,04,17,11.90
2015,08,24,04,18,11.90
2015,08,24,04,19,11.90
2015,08,24,04,20,11.80
2015,08,24,04,21,11.80
2015,08,24,04,22,11.80
2015,08,24,04,23,11.80
2015,08,24,04,24,11.80
2015,08,24,04,25,11.80
2015,08,24,04,26,11.80
2015,08,24,04,27,11.80
2015,08,24,04,28,11.80
2015,08,24,04,29,11.70
2015,08,24,04,30,11.70
2015,08,24,04,31,11.70
2015,08,24,04,32,11.70
2015,08,24,04,33,11.70
2015,08,24,04,34,11.70
2015,08,24,04,35,11.70
2015,08,24,04,36,11.70
2015,08,24,04,37,11.70
2015,08,24,04,38,11.60
2015,08,24,04,39,11.60
2015,08,24,04,40,11.60
2015,08,24,04,41,11.60
2015,08,24,04,42,11.60
2015,08,24,04,43,11.60
2015,08,24,04,44,11.60
2015,08,24,04,45,11.60
2015,08,24,04,46,11.60
2015,08,24,04,47,11.60
2015,08,24,04,48,11.60
2015,08,24,04,49,11.60
2015,08,24,04,50,11.60
2015,08,24,04,51,11.60
2015,08,24,04,52,11.60
2015,08,24,04,53,11.60
2015,08,24,04,54,11.60
2015,08,24,04,55,11.60
2015,08,24,04,56,11.60
2015,08,24,04,57,11.60
2015,08,24,04,58,11.50
2015,08,24,04,59,11.40
2015,08,24,05,00,11.40
2015,08,24,05,01,11.40
2015,08,24,05,02,11.40
2015,08,24,05,03,11.40
2015,08,24,05,04,11.40
2015,08,24,05,05,11.40
2015,08,24,05,06,11.40
2015,08,24,05,07,11.40
2015,08,24,05,08,11.40
2015,08,24,05,09,11.40
2015,08,24,05,10,11.40
2015,08,24,05,11,11.40
2015,08,24,05,12,11.40
2015,08,24,05,13,11.60
2015,08,24,05,14,11.60
2015,08,24,05,15,11.60
2015,08,24,05,16,11.60
2015,08,24,05,17,11.60
2015,08,24,05,18,11.60
2015,08,24,05,19,11.60
2015,08,24,05,20,11.60
2015,08,24,05,21,11.60
2015,08,24,05,22,11.70
2015,08,24,05,23,11.70
2015,08,24,05,24,11.70
2015,08,24,05,25,11.70
2015,08,24,05,26,11.70
2015,08,24,05,27,11.70
2015,08,24,05,28,11.70
2015,08,24,05,29,11.70
2015,08,24,05,30,11.70
2015,08,24,05,31,11.70
2015,08,24,05,32,11.70
2015,08,24,05,33,11.60
2015,08,24,05,34,11.60
2015,08,24,05,35,11.60
2015,08,24,05,36,11.60
2015,08,24,05,37,11.60
2015,08,24,05,38,11.60
2015,08,24,05,39,11.60
2015,08,24,05,40,11.60
2015,08,24,05,41,11.60
2015,08,24,05,42,11.60
2015,08,24,05,43,11.60
2015,08,24,05,44,11.60
2015,08,24,05,45,11.60
2015,08,24,05,46,11.60
2015,08,24,05,47,11.40
2015,08,24,05,48,11.40
2015,08,24,05,49,11.40
2015,08,24,05,50,11.40
2015,08,24,05,51,11.40
2015,08,24,05,52,11.40
2015,08,24,05,53,11.40
2015,08,24,05,54,11.40
2015,08,24,05,55,11.40
2015,08,24,05,56,11.40
2015,08,24,05,57,11.40
2015,08,24,05,58,11.30
2015,08,24,05,59,11.30
2015,08,24,06,00,11.30
2015,08,24,06,01,11.30
2015,08,24,06,02,11.40
2015,08,24,06,03,11.40
2015,08,24,06,04,11.40
2015,08,24,06,05,11.40
2015,08,24,06,06,11.40
2015,08,24,06,07,11.40
2015,08,24,06,08,11.40
2015,08,24,06,09,11.40
2015,08,24,06,10,11.40
2015,08,24,06,11,11.40
2015,08,24,06,12,11.40
2015,08,24,06,13,11.40
2015,08,24,06,14,11.40
2015,08,24,06,15,11.30
2015,08,24,06,16,11.30
2015,08,24,06,17,11.30
2015,08,24,06,18,11.30
2015,08,24,06,19,11.20
2015,08,24,06,20,11.20
2015,08,24,06,21,11.20
2015,08,24,06,22,11.20
2015,08,24,06,23,11.20
2015,08,24,06,24,11.20
2015,08,24,06,25,11.20
2015,08,24,06,26,11.20
2015,08,24,06,27,11.20
2015,08,24,06,28,11.20
2015,08,24,06,29,11.20
2015,08,24,06,30,11.20
2015,08,24,06,31,11.20
2015,08,24,06,32,11.20
2015,08,24,06,33,11.20
2015,08,24,06,34,11.20
2015,08,24,06,35,11.10
2015,08,24,06,36,11.10
2015,08,24,06,37,11.10
2015,08,24,06,38,11.10
2015,08,24,06,39,11.10
2015,08,24,06,40,11.10
2015,08,24,06,41,11.10
2015,08,24,06,42,11.10
2015,08,24,06,43,11.10
2015,08,24,06,44,11.10
2015,08,24,06,45,11.10
2015,08,24,06,46,11.10
2015,08,24,06,47,11.10
2015,08,24,06,48,11.10
2015,08,24,06,49,11.10
2015,08,24,06,50,11.10
2015,08,24,06,51,11.10
2015,08,24,06,52,11.20
2015,08,24,06,53,11.20
2015,08,24,06,54,11.20
2015,08,24,06,55,11.20
2015,08,24,06,56,11.30
2015,08,24,06,57,11.30
2015,08,24,06,58,11.40
2015,08,24,06,59,11.40
2015,08,24,07,00,11.40
2015,08,24,07,01,11.50
2015,08,24,07,02,11.60
2015,08,24,07,03,11.60
2015,08,24,07,04,11.60
2015,08,24,07,05,11.70
2015,08,24,07,06,11.70
2015,08,24,07,07,11.80
2015,08,24,07,08,11.80
2015,08,24,07,09,11.90
2015,08,24,07,10,12.00
2015,08,24,07,11,12.00
2015,08,24,07,12,12.10
2015,08,24,07,13,12.10
2015,08,24,07,14,12.20
2015,08,24,07,15,12.20
2015,08,24,07,16,12.30
2015,08,24,07,17,12.30
2015,08,24,07,18,12.30
2015,08,24,07,19,12.40
2015,08,24,07,20,12.50
2015,08,24,07,21,12.50
2015,08,24,07,22,12.60
2015,08,24,07,23,12.60
2015,08,24,07,24,12.70
2015,08,24,07,25,12.80
2015,08,24,07,26,12.80
2015,08,24,07,27,12.90
2015,08,24,07,28,13.00
2015,08,24,07,29,13.00
2015,08,24,07,30,13.10
2015,08,24,07,31,13.20
2015,08,24,07,32,13.20
2015,08,24,07,33,13.30
2015,08,24,07,34,13.30
2015,08,24,07,35,13.30
2015,08,24,07,36,13.40
2015,08,24,07,37,13.50
2015,08,24,07,38,13.60
2015,08,24,07,39,13.60
2015,08,24,07,40,13.70
2015,08,24,07,41,13.80
2015,08,24,07,42,13.90
2015,08,24,07,43,14.00
2015,08,24,07,44,14.20
2015,08,24,07,45,14.30
2015,08,24,07,46,14.50
2015,08,24,07,47,14.60
2015,08,24,07,48,14.80
2015,08,24,07,49,15.00
2015,08,24,07,50,15.10
2015,08,24,07,51,15.20
2015,08,24,07,52,15.30
2015,08,24,07,53,15.50
2015,08,24,07,54,15.60
2015,08,24,07,55,15.70
2015,08,24,07,56,15.80
2015,08,24,07,57,15.90
2015,08,24,07,58,16.10
2015,08,24,07,59,16.20
2015,08,24,08,00,16.30
2015,08,24,08,01,16.40
2015,08,24,08,02,16.40
2015,08,24,08,03,16.40
2015,08,24,08,04,16.40
2015,08,24,08,05,16.50
2015,08,24,08,06,16.60
2015,08,24,08,07,16.60
2015,08,24,08,08,16.60
2015,08,24,08,09,16.60
2015,08,24,08,10,16.60
2015,08,24,08,11,16.60
2015,08,24,08,12,16.60
2015,08,24,08,13,16.60
2015,08,24,08,14,16.60
2015,08,24,08,15,16.60
2015,08,24,08,16,16.50
2015,08,24,08,17,16.40
2015,08,24,08,18,16.40
2015,08,24,08,19,16.40
2015,08,24,08,20,16.40
2015,08,24,08,21,16.40
2015,08,24,08,22,16.40
2015,08,24,08,23,16.40
2015,08,24,08,24,16.40
2015,08,24,08,25,16.30
2015,08,24,08,26,16.30
2015,08,24,08,27,16.30
2015,08,24,08,28,16.20
2015,08,24,08,29,16.20
2015,08,24,08,30,16.20
2015,08,24,08,31,16.20
2015,08,24,08,32,16.30
2015,08,24,08,33,16.20
2015,08,24,08,34,16.20
2015,08,24,08,35,16.30
2015,08,24,08,36,16.30
2015,08,24,08,37,16.30
2015,08,24,08,38,16.30
2015,08,24,08,39,16.30
2015,08,24,08,40,16.30
2015,08,24,08,41,16.40
2015,08,24,08,42,16.40
2015,08,24,08,43,16.40
2015,08,24,08,44,16.40
2015,08,24,08,45,16.40
2015,08,24,08,46,16.40
2015,08,24,08,47,16.40
2015,08,24,08,48,16.40
2015,08,24,08,49,16.40
2015,08,24,08,50,16.40
2015,08,24,08,51,16.40
2015,08,24,08,52,16.40
2015,08,24,08,53,16.40
2015,08,24,08,54,16.40
2015,08,24,08,55,16.50
2015,08,24,08,56,16.60
2015,08,24,08,57,16.60
2015,08,24,08,58,16.60
2015,08,24,08,59,16.60
2015,08,24,09,00,16.70
2015,08,24,09,01,16.70
2015,08,24,09,02,16.70
2015,08,24,09,03,16.70
2015,08,24,09,04,16.80
2015,08,24,09,05,16.90
2015,08,24,09,06,16.90
2015,08,24,09,07,17.00
2015,08,24,09,08,17.00
2015,08,24,09,09,17.10
2015,08,24,09,10,17.10
2015,08,24,09,11,17.20
2015,08,24,09,12,17.20
2015,08,24,09,13,17.30
2015,08,24,09,14,17.30
2015,08,24,09,15,17.40
2015,08,24,09,16,17.40
2015,08,24,09,17,17.40
2015,08,24,09,18,17.40
2015,08,24,09,19,17.30
2015,08,24,09,20,17.30
2015,08,24,09,21,17.30
2015,08,24,09,22,17.40
2015,08,24,09,23,17.40
2015,08,24,09,24,17.50
2015,08,24,09,25,17.50
2015,08,24,09,26,17.50
2015,08,24,09,27,17.60
2015,08,24,09,28,17.60
2015,08,24,09,29,17.70
2015,08,24,09,30,17.70
2015,08,24,09,31,17.80
2015,08,24,09,32,17.90
2015,08,24,09,33,17.90
2015,08,24,09,34,18.10
2015,08,24,09,35,18.10
2015,08,24,09,36,18.10
2015,08,24,09,37,18.10
2015,08,24,09,38,18.20
2015,08,24,09,39,18.20
2015,08,24,09,40,18.30
2015,08,24,09,41,18.30
2015,08,24,09,42,18.40
2015,08,24,09,43,18.40
2015,08,24,09,44,18.40
2015,08,24,09,45,18.50
2015,08,24,09,46,18.60
2015,08,24,09,47,18.60
2015,08,24,09,48,18.70
2015,08,24,09,49,18.60
2015,08,24,09,50,18.60
2015,08,24,09,51,18.60
2015,08,24,09,52,18.60
2015,08,24,09,53,18.60
2015,08,24,09,54,18.70
2015,08,24,09,55,18.70
2015,08,24,09,56,18.60
2015,08,24,09,57,18.50
2015,08,24,09,58,18.50
2015,08,24,09,59,18.50
2015,08,24,10,00,18.50
2015,08,24,10,01,18.50
2015,08,24,10,02,18.40
2015,08,24,10,03,18.30
2015,08,24,10,04,18.30
2015,08,24,10,05,18.20
2015,08,24,10,06,18.20
2015,08,24,10,07,18.20
2015,08,24,10,08,18.20
2015,08,24,10,09,18.20
2015,08,24,10,10,18.20
2015,08,24,10,11,18.20
2015,08,24,10,12,18.20
2015,08,24,10,13,18.20
2015,08,24,10,14,18.20
2015,08,24,10,15,18.20
2015,08,24,10,16,18.20
2015,08,24,10,17,18.20
2015,08,24,10,18,18.20
2015,08,24,10,19,18.20
2015,08,24,10,20,18.20
2015,08,24,10,21,18.40
2015,08,24,10,22,18.50
2015,08,24,10,23,18.50
2015,08,24,10,24,18.40
2015,08,24,10,25,18.40
2015,08,24,10,26,18.50
2015,08,24,10,27,18.60
2015,08,24,10,28,18.70
2015,08,24,10,29,18.80
2015,08,24,10,30,18.80
2015,08,24,10,31,18.80
2015,08,24,10,32,18.70
2015,08,24,10,33,18.60
2015,08,24,10,34,18.50
2015,08,24,10,35,18.40
2015,08,24,10,36,18.30
2015,08,24,10,37,18.20
2015,08,24,10,38,18.30
2015,08,24,10,39,18.20
2015,08,24,10,40,18.20
2015,08,24,10,41,18.20
2015,08,24,10,42,18.20
2015,08,24,10,43,18.20
2015,08,24,10,44,18.30
2015,08,24,10,45,18.20
2015,08,24,10,46,18.20
2015,08,24,10,47,18.10
2015,08,24,10,48,18.10
2015,08,24,10,49,18.10
2015,08,24,10,50,18.10
2015,08,24,10,51,18.10
2015,08,24,10,52,18.20
2015,08,24,10,53,18.20
2015,08,24,10,54,18.20
2015,08,24,10,55,18.20
2015,08,24,10,56,18.40
2015,08,24,10,57,18.50
2015,08,24,10,58,18.50
2015,08,24,10,59,18.50
2015,08,24,11,00,18.60
2015,08,24,11,01,18.70
2015,08,24,11,02,18.70
2015,08,24,11,03,18.60
2015,08,24,11,04,18.60
2015,08,24,11,05,18.60
2015,08,24,11,06,18.60
2015,08,24,11,07,18.70
2015,08,24,11,08,18.70
2015,08,24,11,09,18.80
2015,08,24,11,10,18.80
2015,08,24,11,11,18.90
2015,08,24,11,12,18.90
2015,08,24,11,13,19.10
2015,08,24,11,14,19.10
2015,08,24,11,15,19.10
2015,08,24,11,16,19.10
2015,08,24,11,17,19.10
2015,08,24,11,18,19.00
2015,08,24,11,19,18.90
2015,08,24,11,20,18.90
2015,08,24,11,21,18.90
2015,08,24,11,22,18.90
2015,08,24,11,23,18.90
2015,08,24,11,24,18.90
2015,08,24,11,25,18.80
2015,08,24,11,26,18.80
2015,08,24,11,27,18.70
2015,08,24,11,28,18.70
2015,08,24,11,29,18.70
2015,08,24,11,30,18.70
2015,08,24,11,31,18.60
2015,08,24,11,32,18.50
2015,08,24,11,33,18.50
2015,08,24,11,34,18.50
2015,08,24,11,35,18.60
2015,08,24,11,36,18.70
2015,08,24,11,37,18.80
2015,08,24,11,38,18.80
2015,08,24,11,39,18.80
2015,08,24,11,40,18.80
2015,08,24,11,41,18.90
2015,08,24,11,42,19.00
2015,08,24,11,43,19.10
2015,08,24,11,44,19.10
2015,08,24,11,45,19.10
2015,08,24,11,46,19.10
2015,08,24,11,47,19.00
2015,08,24,11,48,18.90
2015,08,24,11,49,18.90
2015,08,24,11,50,18.90
2015,08,24,11,51,18.90
2015,08,24,11,52,18.90
2015,08,24,11,53,19.00
2015,08,24,11,54,19.00
2015,08,24,11,55,18.90
2015,08,24,11,56,18.90
2015,08,24,11,57,18.90
2015,08,24,11,58,18.90
2015,08,24,11,59,18.90
2015,08,24,12,00,19.00
2015,08,24,12,01,19.10
2015,08,24,12,02,19.10
2015,08,24,12,03,19.10
2015,08,24,12,04,19.20
2015,08,24,12,05,19.20
2015,08,24,12,06,19.10
2015,08,24,12,07,19.10
2015,08,24,12,08,19.20
2015,08,24,12,09,19.10
2015,08,24,12,10,19.10
2015,08,24,12,11,19.20
2015,08,24,12,12,19.40
2015,08,24,12,13,19.50
2015,08,24,12,14,19.50
2015,08,24,12,15,19.60
2015,08,24,12,16,19.60
2015,08,24,12,17,19.70
2015,08,24,12,18,19.70
2015,08,24,12,19,19.80
2015,08,24,12,20,19.70
2015,08,24,12,21,19.70
2015,08,24,12,22,19.80
2015,08,24,12,23,19.90
2015,08,24,12,24,19.90
2015,08,24,12,25,19.90
2015,08,24,12,26,19.90
2015,08,24,12,27,19.90
2015,08,24,12,28,20.00
2015,08,24,12,29,20.10
2015,08,24,12,30,20.10
2015,08,24,12,31,20.10
2015,08,24,12,32,20.10
2015,08,24,12,33,20.10
2015,08,24,12,34,20.10
2015,08,24,12,35,20.10
2015,08,24,12,36,20.10
2015,08,24,12,37,20.10
2015,08,24,12,38,20.00
2015,08,24,12,39,20.00
2015,08,24,12,40,20.10
2015,08,24,12,41,20.10
2015,08,24,12,42,20.20
2015,08,24,12,43,20.20
2015,08,24,12,44,20.20
2015,08,24,12,45,20.10
2015,08,24,12,46,20.10
2015,08,24,12,47,20.10
2015,08,24,12,48,20.00
2015,08,24,12,49,20.00
2015,08,24,12,50,20.10
2015,08,24,12,51,20.20
2015,08,24,12,52,20.20
2015,08,24,12,53,20.20
2015,08,24,12,54,20.20
2015,08,24,12,55,20.10
2015,08,24,12,56,20.10
2015,08,24,12,57,20.10
2015,08,24,12,58,20.20
2015,08,24,12,59,20.30
2015,08,24,13,00,20.50
2015,08,24,13,01,20.70
2015,08,24,13,02,20.80
2015,08,24,13,03,20.90
2015,08,24,13,04,21.00
2015,08,24,13,05,21.00
2015,08,24,13,06,21.00
2015,08,24,13,07,20.90
2015,08,24,13,08,20.90
2015,08,24,13,09,20.90
2015,08,24,13,10,20.90
2015,08,24,13,11,20.90
2015,08,24,13,12,20.90
2015,08,24,13,13,20.80
2015,08,24,13,14,20.90
2015,08,24,13,15,20.90
2015,08,24,13,16,20.80
2015,08,24,13,17,20.70
2015,08,24,13,18,20.50
2015,08,24,13,19,20.50
2015,08,24,13,20,20.50
2015,08,24,13,21,20.50
2015,08,24,13,22,20.50
2015,08,24,13,23,20.50
2015,08,24,13,24,20.60
2015,08,24,13,25,20.70
2015,08,24,13,26,20.80
2015,08,24,13,27,20.90
2015,08,24,13,28,21.00
2015,08,24,13,29,21.10
2015,08,24,13,30,21.30
2015,08,24,13,31,21.30
2015,08,24,13,32,21.40
2015,08,24,13,33,21.40
2015,08,24,13,34,21.50
2015,08,24,13,35,21.60
2015,08,24,13,36,21.60
2015,08,24,13,37,21.60
2015,08,24,13,38,21.60
2015,08,24,13,39,21.80
2015,08,24,13,40,21.80
2015,08,24,13,41,21.80
2015,08,24,13,42,21.80
2015,08,24,13,43,21.70
2015,08,24,13,44,21.70
2015,08,24,13,45,21.60
2015,08,24,13,46,21.60
2015,08,24,13,47,21.60
2015,08,24,13,48,21.70
2015,08,24,13,49,21.80
2015,08,24,13,50,21.80
2015,08,24,13,51,21.80
2015,08,24,13,52,21.80
2015,08,24,13,53,21.80
2015,08,24,13,54,21.90
2015,08,24,13,55,21.90
2015,08,24,13,56,21.90
2015,08,24,13,57,21.80
2015,08,24,13,58,21.80
2015,08,24,13,59,21.70
2015,08,24,14,00,21.60
2015,08,24,14,01,21.70
2015,08,24,14,02,21.90
2015,08,24,14,03,22.00
2015,08,24,14,04,22.20
2015,08,24,14,05,22.30
2015,08,24,14,06,22.30
2015,08,24,14,07,22.40
2015,08,24,14,08,22.30
2015,08,24,14,09,22.30
2015,08,24,14,10,22.40
2015,08,24,14,11,22.40
2015,08,24,14,12,22.30
2015,08,24,14,13,22.30
2015,08,24,14,14,22.10
2015,08,24,14,15,22.10
2015,08,24,14,16,22.10
2015,08,24,14,17,22.00
2015,08,24,14,18,22.10
2015,08,24,14,19,22.10
2015,08,24,14,20,22.20
2015,08,24,14,21,22.20
2015,08,24,14,22,22.20
2015,08,24,14,23,22.30
2015,08,24,14,24,22.30
2015,08,24,14,25,22.50
2015,08,24,14,26,22.60
2015,08,24,14,27,22.70
2015,08,24,14,28,22.80
2015,08,24,14,29,22.80
2015,08,24,14,30,22.90
2015,08,24,14,31,22.90
2015,08,24,14,32,22.80
2015,08,24,14,33,22.80
2015,08,24,14,34,22.80
2015,08,24,14,35,22.80
2015,08,24,14,36,22.70
2015,08,24,14,37,22.60
2015,08,24,14,38,22.50
2015,08,24,14,39,22.30
2015,08,24,14,40,22.20
2015,08,24,14,41,22.20
2015,08,24,14,42,22.30
2015,08,24,14,43,22.30
2015,08,24,14,44,22.40
2015,08,24,14,45,22.30
2015,08,24,14,46,22.10
2015,08,24,14,47,22.00
2015,08,24,14,48,22.00
2015,08,24,14,49,21.80
2015,08,24,14,50,21.90
2015,08,24,14,51,22.00
2015,08,24,14,52,22.00
2015,08,24,14,53,22.00
2015,08,24,14,54,22.10
2015,08,24,14,55,22.20
2015,08,24,14,56,22.20
2015,08,24,14,57,22.10
2015,08,24,14,58,22.10
2015,08,24,14,59,22.00
2015,08,24,15,00,21.90
2015,08,24,15,01,21.90
2015,08,24,15,02,21.90
2015,08,24,15,03,22.00
2015,08,24,15,04,22.10
2015,08,24,15,05,22.20
2015,08,24,15,06,22.30
2015,08,24,15,07,22.30
2015,08,24,15,08,22.30
2015,08,24,15,09,22.30
2015,08,24,15,10,22.40
2015,08,24,15,11,22.40
2015,08,24,15,12,22.40
2015,08,24,15,13,22.40
2015,08,24,15,14,22.40
2015,08,24,15,15,22.50
2015,08,24,15,16,22.50
2015,08,24,15,17,22.50
2015,08,24,15,18,22.60
2015,08,24,15,19,22.70
2015,08,24,15,20,22.70
2015,08,24,15,21,22.60
2015,08,24,15,22,22.60
2015,08,24,15,23,22.60
2015,08,24,15,24,22.60
2015,08,24,15,25,22.60
2015,08,24,15,26,22.60
2015,08,24,15,27,22.70
2015,08,24,15,28,22.70
2015,08,24,15,29,22.70
2015,08,24,15,30,22.70
2015,08,24,15,31,22.70
2015,08,24,15,32,22.80
2015,08,24,15,33,22.80
2015,08,24,15,34,22.80
2015,08,24,15,35,22.80
2015,08,24,15,36,22.70
2015,08,24,15,37,22.70
2015,08,24,15,38,22.70
2015,08,24,15,39,22.70
2015,08,24,15,40,22.80
2015,08,24,15,41,22.90
2015,08,24,15,42,22.90
2015,08,24,15,43,22.80
2015,08,24,15,44,22.80
2015,08,24,15,45,22.90
2015,08,24,15,46,22.90
2015,08,24,15,47,22.90
2015,08,24,15,48,22.90
2015,08,24,15,49,22.80
2015,08,24,15,50,22.80
2015,08,24,15,51,22.70
2015,08,24,15,52,22.60
2015,08,24,15,53,22.60
2015,08,24,15,54,22.60
2015,08,24,15,55,22.80
2015,08,24,15,56,22.90
2015,08,24,15,57,22.90
2015,08,24,15,58,22.90
2015,08,24,15,59,22.90
2015,08,24,16,00,22.90
2015,08,24,16,01,22.90
2015,08,24,16,02,22.90
2015,08,24,16,03,22.90
2015,08,24,16,04,22.90
2015,08,24,16,05,22.80
2015,08,24,16,06,22.80
2015,08,24,16,07,22.80
2015,08,24,16,08,22.80
2015,08,24,16,09,22.80
2015,08,24,16,10,22.80
2015,08,24,16,11,22.90
2015,08,24,16,12,22.90
2015,08,24,16,13,23.00
2015,08,24,16,14,23.10
2015,08,24,16,15,23.10
2015,08,24,16,16,23.10
2015,08,24,16,17,23.10
2015,08,24,16,18,23.10
2015,08,24,16,19,23.10
2015,08,24,16,20,23.10
2015,08,24,16,21,23.00
2015,08,24,16,22,22.90
2015,08,24,16,23,23.00
2015,08,24,16,24,23.10
2015,08,24,16,25,23.10
2015,08,24,16,26,23.10
2015,08,24,16,27,22.90
2015,08,24,16,28,22.90
2015,08,24,16,29,22.80
2015,08,24,16,30,22.70
2015,08,24,16,31,22.60
2015,08,24,16,32,22.60
2015,08,24,16,33,22.40
2015,08,24,16,34,22.40
2015,08,24,16,35,22.30
2015,08,24,16,36,22.30
2015,08,24,16,37,22.30
2015,08,24,16,38,22.30
2015,08,24,16,39,22.40
2015,08,24,16,40,22.50
2015,08,24,16,41,22.60
2015,08,24,16,42,22.80
2015,08,24,16,43,22.80
2015,08,24,16,44,22.90
2015,08,24,16,45,22.90
2015,08,24,16,46,22.80
2015,08,24,16,47,22.80
2015,08,24,16,48,22.70
2015,08,24,16,49,22.70
2015,08,24,16,50,22.70
2015,08,24,16,51,22.70
2015,08,24,16,52,22.60
2015,08,24,16,53,22.50
2015,08,24,16,54,22.40
2015,08,24,16,55,22.40
2015,08,24,16,56,22.40
2015,08,24,16,57,22.40
2015,08,24,16,58,22.40
2015,08,24,16,59,22.40
2015,08,24,17,00,22.30
2015,08,24,17,01,22.30
2015,08,24,17,02,22.30
2015,08,24,17,03,22.30
2015,08,24,17,04,22.40
2015,08,24,17,05,22.40
2015,08,24,17,06,22.40
2015,08,24,17,07,22.40
2015,08,24,17,08,22.50
2015,08,24,17,09,22.50
2015,08,24,17,10,22.50
2015,08,24,17,11,22.50
2015,08,24,17,12,22.50
2015,08,24,17,13,22.40
2015,08,24,17,14,22.50
2015,08,24,17,15,22.60
2015,08,24,17,16,22.60
2015,08,24,17,17,22.50
2015,08,24,17,18,22.20
2015,08,24,17,19,22.10
2015,08,24,17,20,22.10
2015,08,24,17,21,22.10
2015,08,24,17,22,22.00
2015,08,24,17,23,22.00
2015,08,24,17,24,21.90
2015,08,24,17,25,22.00
2015,08,24,17,26,22.00